Latest Weather Observations for Noarlunga

IDS60901

Issued at 11:05 am CDT Tuesday 21 October 2014 (issued every 10 minutes, with the page automatically refreshed every 10 minutes)

About weather observations | Map of Adelaide area stations | Latest observations for Adelaide area | Other Formats
Station Details ID: 023885 Name: NOARLUNGA Lat: -35.16 Lon: 138.51 Height: 55.0 m
Data from the previous 72 hours. | See also: Recent months at Noarlunga
Date/Time
CDT
Tmp

°C
App
Tmp
°C
Dew
Point
°C
Rel
Hum
%
Delta-T

°C
Wind Press
QNH
hPa
Press
MSL
hPa
Rain
since
9 am
mm
Dir
 
Spd
km/h
Gust
km/h
Spd
kts
Gust
kts
21/11:00am 33.5 27.2 1.3 13 16.1 NNE 24 37 13 20 - - 0.0
21/10:30am 33.4 28.2 2.3 14 15.8 NNE 19 32 10 17 - - 0.0
21/10:00am 32.3 26.9 1.4 14 15.4 NNE 19 28 10 15 - - 0.0
21/09:30am 31.6 28.0 2.7 16 14.6 NNE 11 26 6 14 - - 0.0
21/09:00am 27.2 25.1 3.7 22 11.8 SW 4 6 2 3 - - 0.0
21/08:30am 26.4 24.5 3.0 22 11.5 SSE 2 6 1 3 - - 0.0
21/08:00am 24.5 22.8 3.8 26 10.2 S 2 6 1 3 - - 0.0
21/07:30am 22.7 21.2 2.8 27 9.5 CALM 0 0 0 0 - - 0.0
21/07:00am 21.6 19.5 1.8 27 9.2 N 2 6 1 3 - - 0.0
21/06:30am 22.8 19.4 1.8 25 9.8 ENE 9 13 5 7 - - 0.0
21/06:00am 22.8 20.2 1.2 24 10.0 NNE 4 9 2 5 - - 0.0
21/05:30am 23.4 18.1 1.7 24 10.2 ENE 19 28 10 15 - - 0.0
21/05:00am 23.6 18.6 1.3 23 10.4 ENE 17 26 9 14 - - 0.0
21/04:30am 23.9 18.3 1.5 23 10.5 ENE 20 30 11 16 - - 0.0
21/04:00am 24.3 18.4 1.9 23 10.6 ENE 22 32 12 17 - - 0.0
21/03:30am 24.3 18.4 1.9 23 10.6 ENE 22 32 12 17 - - 0.0
21/03:00am 24.4 18.5 1.9 23 10.7 ENE 22 35 12 19 - - 0.0
21/02:30am 24.0 18.3 2.8 25 10.2 ENE 22 33 12 18 - - 0.0
21/02:00am 23.8 17.8 3.2 26 10.0 ENE 24 39 13 21 - - 0.0
21/01:30am 23.9 17.5 3.2 26 10.0 E 26 43 14 23 - - 0.0
21/01:00am 24.1 18.1 3.4 26 10.1 E 24 39 13 21 - - 0.0
21/12:30am 24.1 18.2 4.0 27 9.9 E 24 39 13 21 - - 0.0
21/12:00am 23.7 18.2 4.1 28 9.7 E 22 39 12 21 - - 0.0
 
Date/Time
CDT
Tmp

°C
App
Tmp
°C
Dew
Point
°C
Rel
Hum
%
Delta-T

°C
Wind Press
QNH
hPa
Press
MSL
hPa
Rain
since
9 am
mm
Dir
 
Spd
km/h
Gust
km/h
Spd
kts
Gust
kts
20/11:30pm 24.4 18.5 3.7 26 10.2 E 24 35 13 19 - - 0.0
20/11:00pm 24.6 18.8 4.4 27 10.1 E 24 41 13 22 - - 0.0
20/10:30pm 24.7 19.6 3.9 26 10.3 E 20 35 11 19 - - 0.0
20/10:00pm 24.8 19.0 4.5 27 10.2 E 24 41 13 22 - - 0.0
20/09:30pm 24.7 19.7 4.5 27 10.1 E 20 35 11 19 - - 0.0
20/09:00pm 24.0 18.0 5.4 30 9.4 E 26 41 14 22 - - 0.0
20/08:30pm 23.9 17.3 6.2 32 9.1 E 30 41 16 22 - - 0.0
20/08:00pm 23.3 17.6 6.6 34 8.6 ESE 26 37 14 20 - - 0.0
20/07:30pm 23.7 18.8 6.9 34 8.7 ESE 22 35 12 19 - - 0.0
20/07:00pm 24.2 18.7 7.4 34 8.8 ESE 26 39 14 21 - - 0.0
20/06:30pm 25.1 19.2 7.3 32 9.4 ESE 28 39 15 21 - - 0.0
20/06:00pm 26.7 21.7 8.2 31 10.0 ESE 24 41 13 22 - - 0.0
20/05:30pm 28.5 22.9 7.1 26 11.5 ESE 26 37 14 20 - - 0.0
20/05:00pm 29.2 23.7 6.0 23 12.2 ESE 24 35 13 19 - - 0.0
20/04:30pm 29.4 24.3 6.1 23 12.3 ESE 22 35 12 19 - - 0.0
20/04:00pm 30.0 24.7 6.6 23 12.5 ESE 24 33 13 18 - - 0.0
20/03:30pm 29.8 24.6 7.1 24 12.2 ESE 24 33 13 18 - - 0.0
20/03:00pm 30.1 25.7 7.3 24 12.4 E 20 33 11 18 - - 0.0
20/02:30pm 29.7 25.5 8.2 26 11.8 E 20 32 11 17 - - 0.0
20/02:00pm 28.5 23.9 8.2 28 11.1 E 22 33 12 18 - - 0.0
20/01:30pm 27.9 23.9 8.2 29 10.7 E 19 26 10 14 - - 0.0
20/01:00pm 26.6 22.5 8.6 32 9.8 E 20 28 11 15 - - 0.0
20/12:30pm 26.0 21.9 8.5 33 9.5 E 20 30 11 16 - - 0.0
20/12:00pm 24.9 21.8 8.8 36 8.7 E 15 32 8 17 - - 0.0
20/11:30am 23.3 19.1 8.2 38 8.0 E 20 32 11 17 - - 0.0
20/11:00am 22.2 18.2 9.0 43 7.1 E 20 32 11 17 - - 0.0
20/10:30am 20.6 16.2 8.9 47 6.2 E 22 33 12 18 - - 0.0
20/10:00am 19.4 15.3 8.7 50 5.6 E 20 37 11 20 - - 0.0
20/09:30am 18.0 14.0 8.3 53 5.0 E 19 44 10 24 - - 0.0
20/09:00am 16.3 12.2 8.5 60 4.0 E 20 41 11 22 - - 0.0
20/08:30am 15.3 11.2 8.5 64 3.5 E 20 43 11 23 - - 0.0
20/08:00am 14.6 10.1 8.5 67 3.1 E 22 37 12 20 - - 0.0
20/07:30am 13.6 9.6 8.4 71 2.6 E 19 35 10 19 - - 0.0
20/07:00am 13.2 9.1 8.7 74 2.3 E 20 39 11 21 - - 0.0
20/06:30am 12.9 6.5 8.6 75 2.2 E 32 50 17 27 - - 0.0
20/06:00am 12.9 5.9 8.6 75 2.2 ESE 35 61 19 33 - - 0.0
20/05:36am 13.1 6.2 8.8 75 2.2 ESE 35 59 19 32 - - 0.0
20/05:30am 13.1 6.1 8.6 74 2.3 ESE 35 54 19 29 - - 0.0
20/05:17am 13.2 5.5 8.7 74 2.3 ESE 39 61 21 33 - - 0.0
20/05:00am 13.3 6.7 8.6 73 2.4 ESE 33 50 18 27 - - 0.0
20/04:30am 13.6 7.0 8.4 71 2.6 ESE 33 56 18 30 - - 0.0
20/04:00am 13.7 6.4 8.7 72 2.5 ESE 37 63 20 34 - - 0.0
20/03:30am 13.8 6.1 8.8 72 2.5 ESE 39 59 21 32 - - 0.0
20/03:01am 14.0 7.1 8.8 71 2.6 ESE 35 54 19 29 - - 0.0
20/03:00am 14.0 6.7 8.8 71 2.6 ESE 37 54 20 29 - - 0.0
20/02:30am 14.2 7.3 9.0 71 2.6 ESE 35 61 19 33 - - 0.0
20/02:00am 14.3 6.0 9.3 72 2.6 ESE 43 61 23 33 - - 0.0
20/01:30am 14.5 7.2 10.1 75 2.3 ESE 39 59 21 32 - - 0.0
20/01:19am 14.5 6.4 9.9 74 2.4 ESE 43 61 23 33 - - 0.0
20/01:00am 14.7 7.0 10.3 75 2.3 ESE 41 54 22 29 - - 0.0
20/12:30am 14.8 8.3 10.4 75 2.3 ESE 35 56 19 30 - - 0.0
20/12:00am 15.1 6.9 10.3 73 2.5 ESE 44 63 24 34 - - 0.0
 
Date/Time
CDT
Tmp

°C
App
Tmp
°C
Dew
Point
°C
Rel
Hum
%
Delta-T

°C
Wind Press
QNH
hPa
Press
MSL
hPa
Rain
since
9 am
mm
Dir
 
Spd
km/h
Gust
km/h
Spd
kts
Gust
kts
19/11:44pm 15.1 6.9 10.5 74 2.4 ESE 44 63 24 34 - - 0.0
19/11:30pm 15.1 6.9 10.3 73 2.5 ESE 44 61 24 33 - - 0.0
19/11:05pm 15.1 8.1 10.1 72 2.6 ESE 37 56 20 30 - - 0.0
19/11:00pm 15.1 7.8 10.1 72 2.6 ESE 39 54 21 29 - - 0.0
19/10:47pm 15.1 7.8 10.1 72 2.6 ESE 39 57 21 31 - - 0.0
19/10:30pm 15.1 7.4 10.1 72 2.6 ESE 41 56 22 30 - - 0.0
19/10:09pm 15.2 7.8 10.0 71 2.7 ESE 39 59 21 32 - - 0.0
19/10:00pm 15.1 7.3 9.9 71 2.7 ESE 41 56 22 30 - - 0.0
19/09:30pm 15.7 8.5 9.1 65 3.4 ESE 37 54 20 29 - - 0.0
19/09:28pm 15.7 8.9 9.4 66 3.3 ESE 35 54 19 29 - - 0.0
19/09:00pm 15.1 8.1 9.9 71 2.7 SE 37 50 20 27 - - 0.0
19/08:35pm 16.3 9.8 8.0 58 4.2 SE 32 52 17 28 - - 0.0
19/08:30pm 16.9 10.1 7.0 52 4.9 ESE 32 44 17 24 - - 0.0
19/08:00pm 15.9 10.1 9.3 65 3.4 ESE 30 41 16 22 - - 0.0
19/07:30pm 15.5 9.5 10.1 70 2.8 SE 32 44 17 24 - - 0.0
19/07:00pm 16.5 10.0 10.4 67 3.2 SE 35 50 19 27 - - 0.0
19/06:30pm 17.3 10.8 10.4 64 3.7 SE 35 48 19 26 - - 0.0
19/06:09pm 18.4 11.9 10.5 60 4.2 SE 35 54 19 29 - - 0.0
19/06:00pm 18.9 12.6 11.0 60 4.3 SE 35 48 19 26 - - 0.0
19/05:30pm 20.5 14.6 10.3 52 5.5 SE 32 48 17 26 - - 0.0
19/05:00pm 22.9 18.4 11.3 48 6.5 SE 26 39 14 21 - - 0.0
19/04:30pm 25.3 20.5 11.5 42 7.8 SSE 28 37 15 20 - - 0.0
19/04:00pm 28.5 24.8 4.7 22 12.2 SW 13 19 7 10 - - 0.0
19/03:30pm 29.7 25.8 -1.6 13 14.5 SW 9 15 5 8 - - 0.0
19/03:00pm 28.9 25.4 -1.2 14 14.0 SSW 7 11 4 6 - - 0.0
19/02:30pm 28.8 24.9 -1.3 14 14.0 SSW 9 15 5 8 - - 0.0
19/02:00pm 29.4 25.7 0.1 15 14.0 SW 9 19 5 10 - - 0.0
19/01:30pm 27.3 23.9 1.7 19 12.4 SW 9 19 5 10 - - 0.0
19/01:00pm 25.7 23.4 5.8 28 10.3 WSW 7 15 4 8 - - 0.0
19/12:30pm 28.5 23.1 -1.6 14 13.8 NNW 17 24 9 13 - - 0.0
19/12:00pm 29.7 24.8 -0.6 14 14.3 NNW 15 22 8 12 - - 0.0
19/11:30am 27.9 21.8 -2.0 14 13.6 N 20 30 11 16 - - 0.0
19/11:00am 27.9 21.5 -2.0 14 13.6 N 22 32 12 17 - - 0.0
19/10:30am 26.4 19.1 -3.2 14 13.0 N 26 35 14 19 - - 0.0
19/10:00am 26.9 20.4 -2.8 14 13.2 N 22 35 12 19 - - 0.0
19/09:30am 26.2 19.6 -3.4 14 12.9 N 22 33 12 18 - - 0.0
19/09:00am 25.4 19.2 -3.1 15 12.4 N 20 32 11 17 - - 0.0
19/08:30am 23.6 17.9 -3.7 16 11.6 N 17 26 9 14 - - 0.0
19/08:00am 23.5 17.2 -3.7 16 11.5 N 20 28 11 15 - - 0.0
19/07:30am 23.5 17.8 -3.7 16 11.5 N 17 24 9 13 - - 0.0
19/07:00am 23.4 17.1 -3.8 16 11.5 N 20 30 11 16 - - 0.0
19/06:30am 23.1 16.8 -4.1 16 11.4 N 20 28 11 15 - - 0.0
19/06:00am 23.4 17.3 -3.8 16 11.5 NNE 19 30 10 16 - - 0.0
19/05:30am 23.4 17.3 -3.8 16 11.5 NNE 19 30 10 16 - - 0.0
19/05:00am 22.6 17.5 -2.2 19 10.8 NNE 15 20 8 11 - - 0.0
19/04:30am 22.1 16.6 -1.9 20 10.4 NNE 17 22 9 12 - - 0.0
19/04:00am 21.9 16.3 -2.7 19 10.5 NNE 17 24 9 13 - - 0.0
19/03:30am 21.8 15.6 -2.8 19 10.5 NE 20 26 11 14 - - 0.0
19/03:00am 21.3 15.4 -2.5 20 10.1 NE 19 24 10 13 - - 0.0
19/02:30am 21.1 16.0 -2.0 21 9.9 NNE 15 19 8 10 - - 0.0
19/02:00am 19.8 15.5 -1.3 24 9.1 NE 11 15 6 8 - - 0.0
19/01:30am 20.7 16.7 -2.4 21 9.8 ENE 9 11 5 6 - - 0.0
19/01:00am 20.8 16.4 -2.3 21 9.8 ENE 11 13 6 7 - - 0.0
19/12:30am 20.2 16.7 -1.0 24 9.2 E 7 13 4 7 - - 0.0
19/12:00am 19.9 16.8 0.4 27 8.7 E 6 9 3 5 - - 0.0
 
Date/Time
CDT
Tmp

°C
App
Tmp
°C
Dew
Point
°C
Rel
Hum
%
Delta-T

°C
Wind Press
QNH
hPa
Press
MSL
hPa
Rain
since
9 am
mm
Dir
 
Spd
km/h
Gust
km/h
Spd
kts
Gust
kts
18/11:30pm 20.4 17.3 0.3 26 9.0 ENE 6 7 3 4 - - 0.0
18/11:00pm 20.9 17.7 0.7 26 9.1 ESE 7 13 4 7 - - 0.0
18/10:30pm 21.9 18.6 0.4 24 9.7 E 7 9 4 5 - - 0.0
18/10:00pm 22.1 19.1 0.6 24 9.8 E 6 7 3 4 - - 0.0
18/09:30pm 22.1 19.0 1.2 25 9.6 E 7 11 4 6 - - 0.0
18/09:00pm 22.2 19.3 1.3 25 9.7 E 6 7 3 4 - - 0.0
18/08:30pm 22.6 20.5 1.6 25 9.8 ESE 2 6 1 3 - - 0.0
18/08:00pm 23.2 20.7 1.5 24 10.2 SSE 4 7 2 4 - - 0.0
18/07:30pm 24.2 21.4 2.9 25 10.3 SSW 7 15 4 8 - - 0.0
18/07:00pm 27.6 23.4 -4.3 12 13.9 N 9 11 5 6 - - 0.0
18/06:30pm 28.2 23.6 -3.9 12 14.1 N 11 15 6 8 - - 0.0
18/06:00pm 29.6 25.4 -3.9 11 14.9 NNW 9 15 5 8 - - 0.0
18/05:30pm 30.3 25.9 -2.2 12 15.0 NNW 11 19 6 10 - - 0.0
18/05:00pm 29.9 25.1 -2.6 12 14.9 NW 13 19 7 10 - - 0.0
18/04:30pm 30.4 24.4 -3.3 11 15.3 NNW 19 26 10 14 - - 0.0
18/04:00pm 30.5 24.9 -3.3 11 15.3 NW 17 28 9 15 - - 0.0
18/03:30pm 30.1 23.5 -3.6 11 15.2 NNW 22 32 12 17 - - 0.0
18/03:00pm 29.4 23.2 -2.9 12 14.6 NNW 20 32 11 17 - - 0.0
18/02:30pm 30.6 24.2 -2.0 12 15.1 NNW 22 32 12 17 - - 0.0
18/02:00pm 29.9 23.4 -2.6 12 14.9 NNW 22 37 12 20 - - 0.0
18/01:30pm 28.2 21.3 -2.8 13 13.9 NNW 24 35 13 19 - - 0.0
18/01:00pm 28.6 21.3 -2.5 13 14.1 N 26 43 14 23 - - 0.0
18/12:42pm 28.9 21.2 -3.3 12 14.4 N 28 46 15 25 - - 0.0
18/12:30pm 28.7 20.7 -2.4 13 14.1 N 30 41 16 22 - - 0.0
18/12:00pm 27.2 18.2 -2.6 14 13.3 N 35 46 19 25 - - 0.0
18/11:36am 27.7 19.7 -2.2 14 13.5 N 30 48 16 26 - - 0.0
18/11:30am 27.8 18.9 -2.1 14 13.6 N 35 48 19 26 - - 0.0
18/11:20am 27.0 18.0 -2.7 14 13.2 N 35 56 19 30 - - 0.0

Latest Capital City Observations: Canberra | Sydney | Melbourne | Brisbane | Adelaide | Perth | Hobart | Darwin

Other Formats:

Comma delimited format used in spreadsheet applications
http://www.bom.gov.au/fwo/IDS60901/IDS60901.94808.axf

JavaScript Object Notation format (JSON) in row-major order
http://www.bom.gov.au/fwo/IDS60901/IDS60901.94808.json